Wind_Speed
35 34 34 34 34 35 35 36 36 37 37 38 38 39 39 39 39 40 40 40 41 41 42 42 42 42 42 42 43 43 43 44 44 43 44 44 44 44 45 47 48 47 48
34 33 33 33 34 35 35 36 36 37 37 38 38 39 39 39 39 39 40 40 40 40 40 40 40 40 41 41 42 42 43 44 44 43 43 43 44 44 45 47 48 48 48
33 33 33 33 34 34 35 36 36 36 37 38 38 39 40 40 40 40 40 40 40 39 38 38 39 39 39 40 41 41 41 42 43 43 43 43 44 44 44 45 46 47 47
32 33 33 34 34 34 35 36 36 36 37 38 38 39 39 39 39 39 39 39 39 38 38 38 39 39 39 39 39 40 40 40 41 42 42 42 43 43 43 43 44 44 45
32 33 32 33 33 34 35 35 36 37 37 37 37 37 37 37 37 37 37 37 37 37 38 38 39 39 39 39 39 39 39 40 40 40 41 41 42 42 41 42 43 42 43
30 30 31 31 33 33 34 35 36 36 36 36 35 35 35 35 35 35 35 35 35 36 36 37 37 37 38 38 38 39 40 39 39 39 40 40 40 40 40 41 42 41 42
30 30 30 31 32 33 34 34 35 35 35 34 35 35 35 35 34 34 34 34 34 34 34 34 35 36 36 36 37 37 38 38 38 39 38 38 39 39 40 41 41 41 41
30 30 31 31 31 32 33 34 35 34 34 34 35 34 34 34 33 33 33 33 32 32 32 32 33 33 34 34 34 34 35 35 36 37 37 37 37 38 39 40 40 40 40
30 31 31 32 32 33 33 34 34 34 34 34 34 33 33 32 32 32 32 31 31 30 30 31 31 31 31 31 31 32 32 32 33 34 35 35 36 37 38 39 39 39 38
30 31 31 32 32 33 32 32 32 32 33 33 32 31 30 29 29 29 29 29 28 28 28 28 28 28 28 28 29 30 31 31 32 33 34 34 34 35 36 37 38 38 38
29 30 31 31 32 32 31 31 31 31 31 30 29 28 27 26 26 26 27 27 27 27 27 27 27 27 27 27 28 28 29 30 30 31 31 32 33 33 33 34 35 36 36
27 28 29 29 30 30 29 29 29 29 28 27 26 25 25 25 25 25 25 26 26 26 26 26 26 26 25 25 25 26 26 28 29 29 29 30 30 30 30 31 31 32 32
25 26 26 27 27 27 27 27 26 26 26 25 25 24 23 24 24 24 24 25 25 25 25 25 25 25 25 25 25 25 26 26 27 27 26 27 27 28 29 29 28 28 28
24 25 25 25 25 25 25 25 25 25 24 23 23 23 23 23 23 23 24 24 24 24 24 25 25 25 25 25 25 24 25 25 24 24 24 24 24 25 25 26 25 25 25
23 23 24 24 24 24 23 24 23 23 23 22 21 21 21 22 22 23 24 23 23 24 24 24 24 24 24 24 23 23 23 22 21 21 21 21 21 22 22 22 22 22 22
22 22 23 23 22 22 22 22 22 22 22 22 21 21 21 21 21 22 22 23 23 23 23 23 22 22 22 22 22 21 21 20 20 19 19 19 19 19 19 19 19 19 20
22 22 22 22 21 21 21 21 21 21 21 21 21 21 21 20 20 21 20 20 21 21 21 21 20 20 20 20 20 20 19 19 19 18 18 18 18 18 18 18 18 18 18
21 21 21 20 20 20 20 20 20 20 20 20 20 20 20 20 20 20 20 19 19 19 18 18 18 18 18 19 19 19 19 19 19 19 18 17 17 17 17 16 16 17 17
21 21 20 20 19 19 19 19 19 18 18 19 19 19 19 19 19 19 18 17 17 17 17 17 17 18 18 19 19 19 19 19 19 18 17 17 16 16 16 15 15 15 15
22 21 21 20 20 19 19 18 18 18 17 17 17 17 17 17 17 17 16 16 16 15 15 16 16 17 17 17 17 17 17 17 17 17 17 17 17 16 15 14 14 13 13
21 21 21 20 20 19 18 18 17 17 16 15 15 15 15 15 15 15 15 15 15 14 14 14 14 14 15 15 16 16 16 16 15 15 15 16 15 15 14 13 12 12 11
20 20 20 20 19 19 18 17 16 16 15 14 14 13 14 13 13 14 14 14 14 14 13 13 13 13 13 14 14 15 15 14 14 14 14 14 14 14 13 13 12 12 11
19 19 19 18 18 17 16 16 15 14 14 13 12 12 12 12 13 13 13 13 13 13 13 13 13 13 13 13 13 13 14 14 13 13 13 14 14 14 13 13 12 12 11
19 19 18 17 16 16 15 14 14 13 13 12 12 12 12 12 13 13 13 13 13 13 13 13 13 13 12 12 12 12 12 12 13 13 13 13 14 13 13 12 12 12 11
18 18 17 16 15 14 13 12 12 12 12 12 12 12 12 11 11 12 12 13 13 13 13 13 13 12 11 11 11 12 12 12 13 13 13 13 13 13 13 13 12 12 12
17 16 16 15 14 13 12 11 11 10 10 10 11 11 11 11 11 11 11 12 12 13 13 13 12 12 12 12 11 12 12 12 12 12 12 12 13 13 13 13 13 12 12
Wind_Direction
277 276 274 273 274 274 274 274 275 274 273 273 273 272 272 271 270 268 268 268 267 265 264 262 261 261 261 261 261 261 261 260 260 259 258 257 257 258 258 258 257 257 258
276 275 274 273 274 274 274 275 275 275 275 274 273 273 273 272 270 269 268 268 267 265 264 262 261 261 262 262 262 262 262 261 261 259 258 258 258 259 259 258 258 258 260
275 274 274 274 274 274 275 275 276 276 276 276 275 274 273 273 272 271 270 268 267 265 263 261 261 262 262 263 263 263 263 262 261 260 260 260 260 260 261 261 260 260 261
276 275 276 275 275 275 275 275 276 277 276 276 276 276 274 273 273 272 270 269 266 264 262 262 262 263 264 264 263 263 262 262 262 261 261 261 262 262 262 262 261 261 262
279 278 276 276 277 276 276 276 277 277 277 277 277 276 274 274 273 271 270 268 267 264 263 263 263 264 264 264 264 264 264 264 263 262 262 263 262 262 263 263 262 261 263
279 278 277 277 277 277 277 278 278 277 277 277 277 276 275 274 273 272 270 268 265 263 263 262 262 263 264 264 264 264 264 264 263 263 263 263 262 262 262 263 262 262 263
279 280 278 277 279 279 279 279 278 278 278 277 277 276 275 274 273 271 269 267 264 264 263 263 263 263 263 264 264 263 263 262 262 262 262 262 261 261 262 262 262 263 264
281 281 280 280 280 280 280 279 279 279 278 278 278 277 275 274 272 270 268 265 263 262 262 262 263 263 263 263 263 263 262 261 260 260 260 260 260 261 262 261 261 263 265
281 282 281 281 281 282 282 281 279 278 278 278 277 276 274 272 271 269 267 265 263 262 261 262 262 262 262 263 262 262 261 260 259 260 261 261 261 262 263 262 262 263 265
283 284 284 283 283 283 283 283 282 281 280 279 276 274 272 271 270 268 265 263 262 260 260 261 261 261 262 262 261 261 262 262 262 262 262 261 262 263 263 264 263 263 265
286 286 286 285 285 284 284 284 284 283 282 279 276 273 270 269 268 266 264 262 261 261 261 262 262 262 262 262 261 262 263 263 263 263 263 262 263 264 265 265 265 265 265
290 289 288 287 286 286 285 284 284 283 282 279 275 271 269 267 267 265 263 262 261 261 261 261 262 261 261 262 263 264 265 265 265 264 264 263 262 262 262 262 263 264 265
292 291 291 289 288 286 286 284 283 283 281 277 273 269 267 265 264 264 264 263 262 261 260 261 262 262 264 264 265 266 267 268 267 266 265 263 261 261 261 261 263 264 264
295 295 294 293 291 288 286 285 285 284 282 278 273 270 267 264 263 264 264 263 262 260 260 262 263 264 265 265 266 266 267 268 267 266 264 263 262 261 260 261 262 263 264
298 298 297 296 293 289 287 286 285 283 281 277 274 270 268 266 264 264 265 264 263 261 261 263 264 264 265 265 265 266 267 266 265 265 264 264 263 261 260 260 262 263 264
300 299 299 297 294 291 289 287 285 283 280 277 274 271 269 267 265 265 265 264 263 262 262 263 263 264 264 262 263 265 266 264 263 263 263 262 261 260 261 263 264 263 263
301 301 302 299 296 294 292 290 288 284 279 276 274 272 269 267 265 264 263 263 264 263 262 262 262 262 261 260 260 261 261 260 259 260 260 259 260 262 262 264 263 263 264
304 303 303 302 300 297 295 294 291 286 281 277 274 271 268 266 264 261 260 262 263 262 261 260 261 261 259 258 259 260 259 256 255 256 256 257 261 263 261 261 262 265 265
305 304 303 302 301 300 298 295 293 289 283 278 274 271 268 266 264 261 259 260 260 260 259 259 259 258 257 257 258 258 258 256 256 255 254 255 259 260 258 258 261 265 264
304 303 302 302 302 301 300 298 296 291 285 280 275 271 269 266 263 260 258 258 257 256 256 257 257 257 256 256 256 256 257 256 255 252 252 253 254 254 254 256 260 264 263
303 302 302 301 300 299 298 298 297 294 286 280 275 271 268 265 262 259 256 253 252 253 255 256 256 256 256 256 256 255 255 254 253 251 249 249 249 249 250 255 258 258 257
305 303 302 300 298 297 296 295 295 292 287 281 276 271 266 263 262 258 255 252 250 250 251 253 255 255 255 256 256 255 253 250 250 249 247 246 246 245 246 250 252 252 253
307 306 305 302 300 298 296 294 294 291 285 279 274 270 265 262 260 257 253 251 248 249 250 251 253 255 256 256 257 255 251 248 246 245 244 244 244 244 245 245 247 249 250
307 307 307 305 302 300 296 294 293 290 284 277 272 269 265 262 258 255 252 251 251 251 250 251 253 255 255 256 255 251 248 247 245 244 245 244 243 242 241 240 242 245 247
308 308 308 307 304 302 298 295 293 290 285 278 272 268 264 262 258 253 251 250 250 251 251 250 251 252 252 253 251 249 247 246 246 246 245 243 241 239 237 236 239 241 245
310 311 310 309 308 306 302 298 296 293 288 281 273 267 263 261 259 256 254 253 252 251 249 248 249 249 249 250 251 250 246 243 243 242 242 240 239 237 236 237 240 243 245
Height
5600 5599 5598 5598 5597 5596 5595 5594 5593 5592 5590 5589 5588 5586 5586 5585 5584 5584 5584 5583 5583 5583 5584 5584 5585 5587 5588 5590 5591 5592 5594 5595 5596 5598 5599 5601 5603 5604 5606 5608 5610 5612 5614
5591 5590 5589 5588 5587 5587 5585 5584 5583 5582 5580 5579 5577 5576 5575 5574 5573 5573 5573 5572 5572 5572 5573 5574 5575 5576 5578 5579 5580 5581 5582 5584 5585 5587 5588 5590 5591 5593 5594 5596 5598 5600 5602
5582 5581 5580 5579 5578 5577 5576 5574 5573 5571 5570 5568 5567 5566 5564 5563 5563 5562 5561 5561 5561 5562 5562 5563 5565 5566 5567 5568 5569 5570 5571 5572 5574 5575 5577 5579 5580 5581 5583 5584 5586 5588 5590
5573 5572 5571 5569 5568 5567 5566 5564 5563 5561 5559 5558 5556 5555 5554 5553 5552 5551 5550 5550 5550 5551 5552 5553 5554 5556 5557 5557 5559 5560 5561 5562 5563 5564 5566 5568 5569 5570 5572 5573 5575 5577 5579
5564 5563 5561 5560 5559 5557 5556 5554 5552 5550 5549 5547 5546 5544 5543 5542 5541 5540 5539 5539 5540 5540 5541 5543 5544 5545 5546 5547 5548 5549 5550 5551 5552 5554 5556 5557 5558 5560 5561 5562 5564 5566 5567
5556 5554 5552 5551 5549 5548 5546 5544 5542 5540 5539 5537 5535 5533 5532 5531 5530 5529 5529 5529 5529 5530 5531 5532 5533 5535 5536 5537 5538 5539 5540 5541 5542 5543 5545 5546 5548 5549 5551 5552 5553 5555 5557
5547 5545 5543 5542 5540 5538 5536 5534 5532 5530 5528 5526 5525 5523 5522 5521 5520 5519 5518 5518 5519 5520 5521 5522 5523 5525 5525 5526 5527 5528 5529 5530 5531 5533 5534 5535 5537 5539 5540 5541 5542 5544 5546
5539 5537 5535 5533 5531 5529 5527 5524 5522 5520 5518 5516 5515 5513 5512 5511 5510 5509 5508 5509 5510 5511 5512 5513 5514 5515 5516 5517 5517 5518 5519 5520 5521 5522 5524 5525 5526 5527 5528 5530 5532 5533 5534
5530 5528 5526 5524 5522 5520 5517 5515 5512 5510 5508 5506 5505 5503 5502 5501 5500 5499 5499 5499 5501 5502 5503 5504 5505 5506 5507 5508 5508 5509 5509 5510 5511 5512 5513 5514 5515 5516 5518 5519 5521 5522 5523
5522 5519 5517 5515 5513 5511 5508 5505 5503 5501 5498 5496 5495 5493 5492 5492 5491 5491 5491 5491 5493 5494 5495 5496 5497 5498 5498 5499 5499 5500 5501 5502 5502 5503 5504 5505 5505 5506 5507 5508 5509 5510 5512
5512 5510 5508 5506 5503 5501 5498 5496 5494 5491 5489 5487 5486 5485 5484 5484 5483 5483 5483 5484 5485 5486 5487 5489 5489 5490 5491 5491 5491 5492 5493 5493 5494 5494 5494 5495 5496 5497 5497 5498 5499 5500 5502
5505 5502 5500 5497 5494 5492 5489 5487 5484 5482 5480 5478 5477 5477 5477 5476 5476 5476 5476 5477 5477 5478 5480 5481 5482 5483 5483 5484 5484 5485 5485 5485 5485 5485 5486 5486 5487 5488 5488 5489 5490 5491 5492
5497 5494 5492 5489 5486 5483 5481 5478 5476 5474 5472 5471 5470 5470 5470 5469 5469 5469 5470 5470 5471 5472 5473 5474 5475 5476 5476 5476 5477 5477 5477 5478 5478 5478 5478 5479 5479 5479 5480 5481 5482 5483 5484
5490 5487 5484 5481 5478 5476 5473 5471 5469 5467 5465 5464 5463 5463 5463 5463 5463 5463 5463 5464 5464 5465 5466 5467 5468 5468 5469 5469 5470 5470 5470 5471 5471 5471 5471 5471 5471 5472 5473 5474 5475 5476 5477
5484 5480 5477 5474 5471 5468 5466 5464 5462 5460 5458 5457 5457 5456 5456 5457 5457 5457 5457 5457 5458 5458 5459 5460 5461 5461 5462 5463 5463 5464 5464 5464 5464 5465 5465 5465 5465 5466 5466 5467 5468 5469 5470
5477 5474 5471 5468 5465 5462 5459 5458 5455 5454 5452 5451 5450 5450 5450 5450 5450 5450 5450 5451 5451 5452 5452 5453 5454 5455 5455 5456 5457 5457 5457 5458 5458 5459 5459 5459 5460 5460 5461 5462 5463 5464 5464
5471 5468 5465 5462 5459 5456 5453 5451 5449 5448 5446 5445 5444 5444 5444 5444 5444 5444 5444 5445 5445 5445 5446 5447 5448 5448 5449 5450 5451 5451 5452 5452 5453 5453 5454 5455 5455 5456 5456 5457 5458 5458 5459
5465 5462 5459 5456 5453 5450 5448 5445 5443 5441 5440 5439 5438 5438 5438 5438 5438 5438 5439 5439 5439 5440 5440 5441 5442 5443 5443 5444 5445 5446 5446 5447 5448 5448 5449 5450 5451 5451 5452 5453 5453 5454 5454
5460 5457 5454 5451 5448 5445 5442 5440 5438 5436 5434 5433 5433 5432 5432 5432 5432 5432 5433 5433 5434 5435 5435 5436 5437 5437 5438 5439 5440 5440 5441 5442 5443 5443 5444 5445 5446 5447 5448 5448 5449 5449 5449
5454 5451 5448 5445 5442 5439 5437 5434 5432 5430 5429 5428 5427 5427 5427 5426 5427 5427 5428 5428 5429 5430 5431 5431 5432 5432 5433 5434 5434 5435 5436 5437 5437 5438 5440 5441 5442 5442 5443 5444 5444 5445 5445
5448 5445 5442 5439 5437 5434 5432 5429 5427 5425 5424 5423 5422 5422 5422 5421 5422 5422 5423 5424 5425 5425 5426 5427 5427 5428 5429 5429 5430 5430 5431 5432 5433 5434 5435 5436 5437 5438 5439 5440 5440 5441 5442
5443 5440 5437 5434 5431 5429 5426 5424 5422 5421 5419 5418 5418 5417 5417 5417 5417 5418 5418 5419 5420 5421 5422 5423 5423 5424 5425 5425 5426 5426 5427 5428 5429 5430 5431 5432 5433 5434 5435 5436 5437 5438 5439
5437 5434 5432 5429 5426 5424 5422 5420 5418 5416 5415 5414 5414 5413 5413 5413 5413 5414 5415 5415 5416 5417 5418 5419 5420 5420 5421 5421 5422 5422 5423 5424 5425 5426 5427 5428 5429 5431 5432 5433 5434 5435 5436
5432 5430 5427 5424 5421 5419 5417 5415 5414 5412 5411 5410 5410 5409 5409 5409 5410 5410 5411 5412 5413 5414 5415 5415 5416 5417 5417 5418 5418 5419 5420 5420 5421 5423 5424 5425 5426 5427 5428 5430 5431 5432 5433
5428 5425 5422 5420 5417 5415 5413 5411 5410 5409 5408 5407 5406 5406 5406 5406 5406 5407 5407 5408 5409 5410 5411 5412 5412 5413 5414 5414 5415 5415 5416 5417 5418 5419 5420 5421 5423 5424 5425 5427 5428 5429 5430
5423 5420 5418 5415 5413 5411 5409 5408 5407 5406 5405 5404 5403 5403 5403 5403 5403 5403 5404 5405 5406 5406 5407 5408 5408 5409 5410 5411 5411 5412 5413 5414 5415 5416 5417 5418 5419 5421 5422 5424 5425 5426 5427